This is the latest recevied weather packets stored in our database for station/object OE9SAU-10. If no packets are shown the sender has not sent any weather packets the latest 10 day(s).
| Time | Temp. | Humidity | Pressure | Rain* | Wind** | Luminosity | Snow |
|---|---|---|---|---|---|---|---|
| 1777098748 | 12.22° C | 39% | 1021.6 hPa | - | - | - | - |
| 1777097848 | 12.22° C | 37% | 1021.6 hPa | - | - | - | - |
| 1777096948 | 11.67° C | 36% | 1021.7 hPa | - | - | - | - |
| 1777096048 | 11.67° C | 35% | 1021.7 hPa | - | - | - | - |
| 1777095148 | 11.67° C | 36% | 1021.6 hPa | - | - | - | - |
| 1777094248 | 12.22° C | 35% | 1021.4 hPa | - | - | - | - |
| 1777093347 | 12.22° C | 35% | 1021.3 hPa | - | - | - | - |
| 1777092447 | 12.22° C | 34% | 1021.4 hPa | - | - | - | - |
| 1777091547 | 12.22° C | 34% | 1021.4 hPa | - | - | - | - |
| 1777090647 | 12.22° C | 35% | 1021.3 hPa | - | - | - | - |
| 1777089747 | 12.78° C | 34% | 1021.2 hPa | - | - | - | - |
| 1777088847 | 12.78° C | 34% | 1021.3 hPa | - | - | - | - |
| 1777087947 | 12.78° C | 33% | 1021.4 hPa | - | - | - | - |
| 1777087047 | 12.78° C | 34% | 1021.5 hPa | - | - | - | - |
| 1777086146 | 12.78° C | 35% | 1021.6 hPa | - | - | - | - |
| 1777085246 | 12.78° C | 34% | 1021.7 hPa | - | - | - | - |
| 1777084346 | 13.33° C | 33% | 1021.5 hPa | - | - | - | - |
| 1777083446 | 13.33° C | 33% | 1021.5 hPa | - | - | - | - |
| 1777082546 | 13.33° C | 33% | 1021.6 hPa | - | - | - | - |
| 1777081646 | 13.33° C | 32% | 1021.5 hPa | - | - | - | - |
| 1777080746 | 13.89° C | 33% | 1021.5 hPa | - | - | - | - |
| 1777079846 | 13.89° C | 32% | 1021.6 hPa | - | - | - | - |
| 1777078946 | 14.44° C | 32% | 1021.7 hPa | - | - | - | - |
| 1777078046 | 14.44° C | 31% | 1021.8 hPa | - | - | - | - |
| 1777077146 | 14.44° C | 32% | 1021.8 hPa | - | - | - | - |
* Rain since midnight (hover to see other rain measurements)
** Current wind speed in m/s (hover to see current wind gust speed)